TimePDT,TemperatureF,Dew PointF,Humidity,Sea Level PressureIn,VisibilityMPH,Wind Direction,Wind SpeedMPH,Gust SpeedMPH,PrecipitationIn,Events,Conditions,WindDirDegrees,DateUTC
12:54 AM,64.9,60.1,84,29.82,7.0,NNW,4.6,-,N/A,,Clear,330,2012-10-02 07:54:00
1:54 AM,64.9,60.1,84,29.82,9.0,NNW,4.6,-,N/A,,Clear,340,2012-10-02 08:54:00
2:54 AM,61.0,57.0,87,29.81,8.0,Calm,Calm,-,N/A,,Clear,0,2012-10-02 09:54:00
3:54 AM,61.0,59.0,93,29.81,8.0,Calm,Calm,-,N/A,,Clear,0,2012-10-02 10:54:00
4:54 AM,61.0,57.9,90,29.81,9.0,Calm,Calm,-,N/A,,Clear,0,2012-10-02 11:54:00
5:54 AM,57.9,57.9,100,29.82,7.0,Calm,Calm,-,N/A,,Clear,0,2012-10-02 12:54:00
6:54 AM,57.9,55.9,93,29.84,7.0,Calm,Calm,-,N/A,,Clear,0,2012-10-02 13:54:00
7:54 AM,63.0,57.0,81,29.85,7.0,North,3.5,-,N/A,,Partly Cloudy,10,2012-10-02 14:54:00
8:54 AM,71.1,59.0,66,29.86,7.0,North,4.6,-,N/A,,Partly Cloudy,350,2012-10-02 15:54:00
9:54 AM,80.1,63.0,56,29.86,7.0,Calm,Calm,-,N/A,,Clear,0,2012-10-02 16:54:00
10:54 AM,80.1,64.0,58,29.86,7.0,SW,6.9,-,N/A,,Clear,220,2012-10-02 17:54:00
11:54 AM,77.0,64.0,64,29.86,7.0,WSW,8.1,-,N/A,,Clear,250,2012-10-02 18:54:00
12:54 PM,78.1,66.0,66,29.86,7.0,WSW,10.4,-,N/A,,Clear,250,2012-10-02 19:54:00
1:54 PM,78.1,64.9,64,29.83,7.0,West,8.1,-,N/A,,Clear,260,2012-10-02 20:54:00
2:54 PM,80.1,66.0,62,29.83,8.0,Variable,4.6,-,N/A,,Partly Cloudy,0,2012-10-02 21:54:00
3:54 PM,79.0,64.0,60,29.82,9.0,West,4.6,-,N/A,,Partly Cloudy,270,2012-10-02 22:54:00
4:54 PM,77.0,62.1,60,29.82,9.0,West,8.1,-,N/A,,Partly Cloudy,270,2012-10-02 23:54:00
5:54 PM,73.0,64.9,76,29.82,8.0,West,4.6,-,N/A,,Partly Cloudy,270,2012-10-03 00:54:00
6:54 PM,71.1,62.1,73,29.81,8.0,NNW,4.6,-,N/A,,Partly Cloudy,330,2012-10-03 01:54:00
7:54 PM,69.1,62.1,78,29.82,8.0,Calm,Calm,-,N/A,,Clear,0,2012-10-03 02:54:00
8:54 PM,68.0,63.0,84,29.83,6.0,NNW,5.8,-,N/A,,Haze,330,2012-10-03 03:54:00
9:54 PM,66.9,64.9,93,29.85,6.0,Calm,Calm,-,N/A,,Clear,0,2012-10-03 04:54:00
10:54 PM,64.9,64.9,100,29.85,5.0,Calm,Calm,-,N/A,,Partly Cloudy,0,2012-10-03 05:54:00
11:54 PM,64.0,64.0,100,29.86,4.0,Calm,Calm,-,N/A,,Clear,0,2012-10-03 06:54:00